Huvudsida
METAR-TAF:

METAR-TAF

Flygplatser :

Heliport

Værøy, Norge

latitud: 67-39-16N, longitud: 12-43-37E, höjd: 5 m

Aktuellt väderrapport

Denna rapport gjordes för 6 timmar och 54 minuter sedan, klockan 06:50 UTC
Vind 8 kt från syd/sydost
Temperatur 13°C
Fuktighet 88%
Tryck 1003 hPa
Sikt 10 km eller mer
Få moln på en höjd av 2000 ft

METAR: ENVR 170650Z 15008KT 9999 FEW020 13/11 Q1003

Tid: 15:44 (13:44 UTC)


TAF: saknas

Aktuella väderrapporter och prognoser från 4000 flygplatser (METAR- och TAF-rapporter).

De tillgängliga stationerna syns som gula och röda prickar på kartan.

För musen över prickarna för att se namnen på stationerna.

Klicka sedan för att få väderrapporter och prognoser.

För att ändra kartan: Klicka på de gröna knapparna med ett svart kors på för att zooma in; den gröna knappen med ett streck på för att zooma ut; eller på de gröna pilarna för angränsande kartor.


METAR-TAF: